Carroll, IA

6:25 PM CDT on July 25, 2017 (GMT -0500)
Neu

Weather History for KCIN - November, 2012

Change the Weather History Date:

Saturday, November 17, 2012

  Actual Average Record
Temperature  
Mean Temperature 46 °F -  
Max Temperature 60 °F 46 °F 76 °F (1953)
Min Temperature 32 °F 28 °F -5 °F (1959)
Degree Days  
Heating Degree Days 19    
Moisture  
Dew Point 32 °F    
Average Humidity 61    
Maximum Humidity 93    
Minimum Humidity 34    
Precipitation  
Precipitation 0.00 in - - ()
Sea Level Pressure  
Sea Level Pressure 30.25 in    
Wind  
Wind Speed 11 mph (South)    
Max Wind Speed 28 mph    
Max Gust Speed 37 mph    
Visibility 10 miles    
Events      
Averages and records for this station are not official NWS values.
T = Trace of Precipitation, MM = Missing Value Source: NWS Daily Summary

Daily Weather History Graph

Daily Weather History Graph

Search for Another Location

Airport or City:

Trip Planner

Search our weather history database for the weather conditions in past years. The results will help you decide how hot, cold, wet, or windy it might be!

Date:

Astronomy

Nov. 17, 2012 Rise Set
Actual Time 7:12 AM CST 4:55 PM CST
Civil Twilight 6:42 AM CST 5:26 PM CST
Nautical Twilight 6:08 AM CST 6:00 PM CST
Astronomical Twilight 5:34 AM CST 6:33 PM CST
Moon 10:57 AM CST (11/17) 9:07 PM CST (11/17)
Length of Visible Light 10h 44m
Length of Day
9h 43m
Waxing Crescent, 20% of the Moon is Illuminated
Nov 17
Waxing Crescent
Nov 20
First Quarter
Nov 28
Full
Dec 6
Last Quarter
Dec 13
New

Hourly Weather History & Observations

Time (CST) Temp. Windchill Dew Point Humidity Pressure Visibility Wind Dir Wind Speed Gust Speed Precip Events Conditions
12:15 AM 32.0 °F 27.5 °F 26.6 °F 80% 30.32 in 10.0 mi SSE 4.6 mph - N/A   Clear
12:35 AM 32.0 °F 26.4 °F 28.4 °F 87% 30.33 in 10.0 mi SE 5.8 mph - N/A   Clear
12:55 AM 33.8 °F 29.6 °F 28.4 °F 81% 30.33 in 10.0 mi SE 4.6 mph - N/A   Clear
1:15 AM 32.0 °F 26.4 °F 26.6 °F 80% 30.32 in 10.0 mi SSE 5.8 mph - N/A   Clear
1:35 AM 32.0 °F 25.6 °F 28.4 °F 87% 30.32 in 10.0 mi SSE 6.9 mph - N/A   Clear
1:55 AM 32.0 °F 26.4 °F 28.4 °F 87% 30.32 in 10.0 mi SSE 5.8 mph - N/A   Clear
2:15 AM 33.8 °F 28.6 °F 28.4 °F 81% 30.32 in 10.0 mi South 5.8 mph - N/A   Clear
2:35 AM 33.8 °F 27.0 °F 30.2 °F 87% 30.32 in 10.0 mi South 8.1 mph - N/A   Clear
2:55 AM 35.6 °F 28.6 °F 32.0 °F 87% 30.32 in 10.0 mi South 9.2 mph - N/A   Clear
3:15 AM 37.4 °F 30.3 °F 32.0 °F 81% 30.32 in 10.0 mi South 10.4 mph - N/A   Clear
3:55 AM 35.6 °F 28.6 °F 32.0 °F 87% 30.31 in 10.0 mi South 9.2 mph - N/A   Clear
4:15 AM 35.6 °F 28.6 °F 32.0 °F 87% 30.30 in 10.0 mi South 9.2 mph - N/A   Clear
4:35 AM 35.6 °F 28.6 °F 32.0 °F 87% 30.30 in 10.0 mi South 9.2 mph - N/A   Clear
4:55 AM 35.6 °F 28.6 °F 32.0 °F 87% 30.30 in 10.0 mi South 9.2 mph - N/A   Clear
5:15 AM 35.6 °F 28.6 °F 32.0 °F 87% 30.30 in 10.0 mi South 9.2 mph - N/A   Clear
5:35 AM 35.6 °F 29.2 °F 32.0 °F 87% 30.30 in 10.0 mi South 8.1 mph - N/A   Clear
5:55 AM 33.8 °F 28.6 °F 30.2 °F 87% 30.30 in 10.0 mi SSE 5.8 mph - N/A   Clear
6:15 AM 32.0 °F 25.6 °F 30.2 °F 93% 30.30 in 10.0 mi SSE 6.9 mph - N/A   Clear
6:35 AM 32.0 °F 24.8 °F 30.2 °F 93% 30.30 in 10.0 mi SSE 8.1 mph - N/A   Clear
6:55 AM 32.0 °F 24.8 °F 30.2 °F 93% 30.30 in 10.0 mi SSE 8.1 mph - N/A   Clear
7:15 AM 33.8 °F 27.7 °F 30.2 °F 87% 30.30 in 9.0 mi SSE 6.9 mph - N/A   Clear
7:35 AM 33.8 °F 27.7 °F 30.2 °F 87% 30.30 in 9.0 mi SSE 6.9 mph - N/A   Clear
7:55 AM 33.8 °F 28.6 °F 32.0 °F 93% 30.30 in 9.0 mi SSE 5.8 mph - N/A   Clear
8:15 AM 35.6 °F 30.7 °F 32.0 °F 87% 30.30 in 10.0 mi SSE 5.8 mph - N/A   Clear
8:35 AM 37.4 °F 32.8 °F 33.8 °F 87% 30.30 in - SE 5.8 mph - N/A   Clear
8:55 AM 44.6 °F 38.8 °F 37.4 °F 76% 30.30 in 10.0 mi South 11.5 mph - N/A   Clear
9:15 AM 46.4 °F 40.7 °F 35.6 °F 66% 30.30 in 10.0 mi South 12.7 mph - N/A   Clear
9:35 AM 48.2 °F - 37.4 °F 66% 30.30 in 10.0 mi South 10.4 mph 18.4 mph N/A   Clear
9:55 AM 51.8 °F - 35.6 °F 54% 30.30 in 10.0 mi South 15.0 mph - N/A   Clear
10:15 AM 53.6 °F - 33.8 °F 47% 30.29 in 10.0 mi South 19.6 mph - N/A   Clear
10:35 AM 55.4 °F - 35.6 °F 47% 30.29 in 10.0 mi SSW 20.7 mph - N/A   Clear
11:55 AM 59.0 °F - 33.8 °F 39% 30.25 in 10.0 mi South 25.3 mph 33.4 mph N/A   Clear
12:15 PM 59.0 °F - 32.0 °F 36% 30.24 in 10.0 mi SSW 27.6 mph 34.5 mph N/A   Clear
12:35 PM 59.0 °F - 32.0 °F 36% 30.24 in 10.0 mi South 24.2 mph 31.1 mph N/A   Clear
12:55 PM 60.8 °F - 32.0 °F 34% 30.23 in 10.0 mi South 25.3 mph 33.4 mph N/A   Clear
1:15 PM 60.8 °F - 32.0 °F 34% 30.22 in 10.0 mi South 25.3 mph 33.4 mph N/A   Clear
1:35 PM 59.0 °F - 32.0 °F 36% 30.21 in 10.0 mi South 21.9 mph 36.8 mph N/A   Clear
1:55 PM 59.0 °F - 32.0 °F 36% 30.20 in 10.0 mi South 23.0 mph 31.1 mph N/A   Clear
2:15 PM 59.0 °F - 30.2 °F 34% 30.19 in 10.0 mi South 24.2 mph 32.2 mph N/A   Clear
2:35 PM 59.0 °F - 30.2 °F 34% 30.19 in 10.0 mi South 20.7 mph 29.9 mph N/A   Clear
2:55 PM 59.0 °F - 32.0 °F 36% 30.19 in 10.0 mi South 19.6 mph 28.8 mph N/A   Clear
3:15 PM 59.0 °F - 32.0 °F 36% 30.19 in 10.0 mi South 24.2 mph - N/A   Clear
3:35 PM 59.0 °F - 32.0 °F 36% 30.19 in 10.0 mi South 20.7 mph 28.8 mph N/A   Clear
3:55 PM 57.2 °F - 32.0 °F 38% 30.20 in 9.0 mi South 19.6 mph 26.5 mph N/A   Clear
4:15 PM 57.2 °F - 30.2 °F 36% 30.20 in 10.0 mi South 21.9 mph 28.8 mph N/A   Clear
4:35 PM 55.4 °F - 32.0 °F 41% 30.20 in 10.0 mi South 15.0 mph 20.7 mph N/A   Clear
4:55 PM 53.6 °F - 32.0 °F 44% 30.20 in 10.0 mi South 15.0 mph 20.7 mph N/A   Clear
5:15 PM 53.6 °F - 32.0 °F 44% 30.20 in 10.0 mi South 13.8 mph - N/A   Clear
5:35 PM 51.8 °F - 32.0 °F 47% 30.20 in 10.0 mi SSE 12.7 mph - N/A   Partly Cloudy
5:55 PM 51.8 °F - 32.0 °F 47% 30.20 in 10.0 mi SSE 13.8 mph - N/A   Mostly Cloudy
6:15 PM 51.8 °F - 32.0 °F 47% 30.20 in 10.0 mi SSE 17.3 mph - N/A   Overcast
6:35 PM 51.8 °F - 32.0 °F 47% 30.20 in 10.0 mi SSE 16.1 mph - N/A   Overcast
6:55 PM 51.8 °F - 33.8 °F 50% 30.20 in 10.0 mi SSE 15.0 mph - N/A   Overcast
7:15 PM 50.0 °F - 33.8 °F 54% 30.19 in 10.0 mi SSE 16.1 mph - N/A   Overcast
7:35 PM 50.0 °F - 33.8 °F 54% 30.20 in 10.0 mi SSE 16.1 mph - N/A   Mostly Cloudy
7:55 PM 50.0 °F - 33.8 °F 54% 30.19 in 10.0 mi SSE 18.4 mph - N/A   Mostly Cloudy
8:15 PM 50.0 °F - 32.0 °F 50% 30.20 in 10.0 mi South 15.0 mph - N/A   Overcast
8:35 PM 51.8 °F - 32.0 °F 47% 30.21 in 10.0 mi South 16.1 mph 21.9 mph N/A   Overcast
8:55 PM 51.8 °F - 32.0 °F 47% 30.21 in 10.0 mi South 17.3 mph - N/A   Overcast
9:15 PM 51.8 °F - 32.0 °F 47% 30.21 in 10.0 mi South 16.1 mph - N/A   Overcast
9:35 PM 51.8 °F - 32.0 °F 47% 30.20 in 10.0 mi South 18.4 mph 25.3 mph N/A   Overcast
9:55 PM 51.8 °F - 32.0 °F 47% 30.20 in 10.0 mi South 17.3 mph 24.2 mph N/A   Overcast
10:15 PM 50.0 °F - 32.0 °F 50% 30.21 in 10.0 mi South 16.1 mph 23.0 mph N/A   Scattered Clouds
10:35 PM 48.2 °F - 32.0 °F 54% 30.21 in 10.0 mi South 13.8 mph - N/A   Partly Cloudy
10:55 PM 48.2 °F - 32.0 °F 54% 30.20 in 10.0 mi South 16.1 mph - N/A   Mostly Cloudy
11:15 PM 50.0 °F - 32.0 °F 50% 30.20 in 10.0 mi South 16.1 mph 21.9 mph N/A   Overcast
11:35 PM 50.0 °F - 32.0 °F 50% 30.20 in 10.0 mi South 16.1 mph - N/A   Overcast
11:55 PM 50.0 °F - 32.0 °F 50% 30.20 in 10.0 mi South 17.3 mph - N/A   Overcast